User: anonymous   Login
Location: Caltech
(34.1382°N, 118.1253°W)
Time: 18:44:35
(UTC-08:00)
Language:

Courier 1B - Orbit

View from above orbital plane
View from above orbital plane
View from above satellite
View from above satellite

Ground track
Ground track

The orbit data is extracted from the following two-line orbital elements,

1 00058U 60013A   17016.18164094  .00000105  00000-0  26555-4 0  9994
2 00058  28.3285 307.3706 0165054 174.7969 185.4328 13.46306963770807
Epoch (UTC): 16 January 2017 04:21:33
Eccentricity: 0.0165054
inclination: 28.3285°
perigee height: 962 km
apogee height: 1209 km
right ascension of ascending node: 307.3706°
argument of perigee: 174.7969°
revolutions per day: 13.46306963
mean anomaly at epoch: 185.4328°
orbit number at epoch: 77080

The dashed part of the orbit path shows where the satellite is in the earth's shadow,  

DLR